| time (UTC) | temp C | wind direction | speed KPH | gust KPH | rain 1hr cm | rain 24hr cm | rain mn cm | humidity % | barometer mb |
| 20260507145020 | 13 | 331 | 4.8 | 9.7 | 0.00 | 0.23 | 0.00 | 49 | 1002.9 |
| 20260507145008 | 13 | 344 | 3.2 | 9.7 | 0.00 | 0.23 | 0.00 | 48 | 1002.9 |
| 20260507144507 | 13 | 13 | 3.2 | 9.7 | 0.00 | 0.23 | 0.00 | 51 | 1002.8 |
| 20260507144008 | 13 | 333 | 3.2 | 11.3 | 0.00 | 0.23 | 0.00 | 47 | 1002.9 |
| 20260507143543 | 13 | 341 | 3.2 | 11.3 | 0.00 | 0.23 | 0.00 | 51 | 1002.9 |
| 20260507143508 | 13 | 323 | 3.2 | 9.7 | 0.00 | 0.23 | 0.00 | 51 | 1002.9 |
| 20260507143032 | 13 | 317 | 4.8 | 9.7 | 0.00 | 0.23 | 0.00 | 49 | 1002.9 |
| 20260507143008 | 13 | 328 | 4.8 | 9.7 | 0.00 | 0.23 | 0.00 | 49 | 1002.9 |
| 20260507142522 | 13 | 9 | 4.8 | 9.7 | 0.00 | 0.23 | 0.00 | 49 | 1003.0 |
| 20260507142508 | 13 | 347 | 4.8 | 9.7 | 0.00 | 0.23 | 0.00 | 49 | 1003.0 |
| 20260507142020 | 13 | 309 | 3.2 | 9.7 | 0.00 | 0.23 | 0.00 | 48 | 1002.9 |
| 20260507142012 | 13 | 336 | 3.2 | 9.7 | 0.00 | 0.23 | 0.00 | 48 | 1002.9 |
| 20260507141520 | 12 | 290 | 1.6 | 9.7 | 0.00 | 0.23 | 0.00 | 54 | 1002.9 |
| 20260507141507 | 12 | 11 | 3.2 | 9.7 | 0.00 | 0.23 | 0.00 | 55 | 1002.9 |
| 20260507141008 | 12 | 336 | 3.2 | 9.7 | 0.00 | 0.23 | 0.00 | 49 | 1002.9 |
| 20260507140519 | 12 | 6 | 3.2 | 9.7 | 0.00 | 0.23 | 0.00 | 51 | 1003.0 |
| 20260507140047 | 12 | 6 | 3.2 | 12.9 | 0.00 | 0.23 | 0.00 | 48 | 1003.0 |
| 20260507140009 | 12 | 340 | 3.2 | 12.9 | 0.00 | 0.23 | 0.00 | 48 | 1003.0 |
| 20260507135508 | 12 | 28 | 3.2 | 12.9 | 0.00 | 0.30 | 0.00 | 50 | 1003.0 |
| 20260507135012 | 12 | 229 | 3.2 | 11.3 | 0.00 | 0.30 | 0.00 | 52 | 1003.0 |
| 20260507134532 | 12 | 28 | 4.8 | 11.3 | 0.00 | 0.30 | 0.00 | 54 | 1002.8 |
| 20260507134508 | 12 | 334 | 4.8 | 11.3 | 0.00 | 0.30 | 0.00 | 54 | 1002.8 |
| 20260507134020 | 12 | 46 | 3.2 | 11.3 | 0.00 | 0.30 | 0.00 | 49 | 1002.8 |
| 20260507134007 | 12 | 1 | 3.2 | 11.3 | 0.00 | 0.30 | 0.00 | 50 | 1002.8 |
| 20260507133508 | 12 | 336 | 4.8 | 11.3 | 0.00 | 0.30 | 0.00 | 53 | 1002.9 |
| 20260507133029 | 11 | 325 | 3.2 | 8.0 | 0.00 | 0.30 | 0.00 | 55 | 1002.9 |
| 20260507132508 | 11 | 1 | 3.2 | 9.7 | 0.00 | 0.30 | 0.00 | 60 | 1002.8 |
| 20260507132020 | 11 | 234 | 4.8 | 9.7 | 0.00 | 0.30 | 0.00 | 58 | 1003.0 |
| 20260507132012 | 11 | 277 | 4.8 | 9.7 | 0.00 | 0.30 | 0.00 | 58 | 1003.0 |
| 20260507131520 | 11 | 37 | 4.8 | 8.0 | 0.00 | 0.30 | 0.00 | 60 | 1002.9 |
| 20260507131507 | 11 | 1 | 3.2 | 8.0 | 0.00 | 0.30 | 0.00 | 60 | 1002.9 |
| 20260507131007 | 11 | 305 | 3.2 | 9.7 | 0.00 | 0.30 | 0.00 | 64 | 1002.9 |
| 20260507130531 | 10 | 161 | 1.6 | 9.7 | 0.00 | 0.30 | 0.00 | 64 | 1002.9 |
| 20260507130508 | 10 | 89 | 1.6 | 9.7 | 0.00 | 0.30 | 0.00 | 63 | 1002.9 |
| 20260507130022 | 10 | 56 | 3.2 | 8.0 | 0.00 | 0.30 | 0.00 | 64 | 1002.8 |
| 20260507130008 | 10 | 32 | 1.6 | 8.0 | 0.00 | 0.30 | 0.00 | 64 | 1002.8 |
| 20260507125520 | 10 | 319 | 4.8 | 8.0 | 0.00 | 0.41 | 0.00 | 69 | 1002.9 |
| 20260507125021 | 9 | 46 | 1.6 | 4.8 | 0.00 | 0.41 | 0.00 | 74 | 1002.9 |
| 20260507125008 | 9 | 46 | 1.6 | 4.8 | 0.00 | 0.41 | 0.00 | 74 | 1002.9 |
| 20260507124531 | 8 | 240 | 1.6 | 6.4 | 0.00 | 0.41 | 0.00 | 76 | 1002.8 |
| 20260507124508 | 8 | 223 | 1.6 | 6.4 | 0.00 | 0.41 | 0.00 | 76 | 1002.8 |
| 20260507124008 | 8 | 295 | 3.2 | 6.4 | 0.00 | 0.41 | 0.00 | 76 | 1002.9 |
| 20260507123531 | 7 | 344 | 1.6 | 4.8 | 0.00 | 0.41 | 0.00 | 81 | 1003.0 |
| 20260507123020 | 6 | 331 | 1.6 | 4.8 | 0.00 | 0.41 | 0.00 | 81 | 1003.0 |
| 20260507123008 | 6 | 117 | 1.6 | 4.8 | 0.00 | 0.41 | 0.00 | 83 | 1003.0 |
| 20260507122508 | 6 | 46 | 1.6 | 4.8 | 0.00 | 0.41 | 0.00 | 87 | 1003.0 |
| 20260507122032 | 6 | 23 | 1.6 | 4.8 | 0.00 | 0.41 | 0.00 | 88 | 1003.1 |
| 20260507122012 | 6 | 152 | 1.6 | 4.8 | 0.00 | 0.41 | 0.00 | 88 | 1003.1 |
| 20260507121520 | 5 | 1 | 1.6 | 4.8 | 0.00 | 0.41 | 0.00 | 90 | 1003.1 |
| 20260507121508 | 5 | 331 | 1.6 | 4.8 | 0.00 | 0.41 | 0.00 | 90 | 1003.1 |
| 20260507121020 | 5 | 206 | 1.6 | 4.8 | 0.00 | 0.41 | 0.00 | 91 | 1003.1 |
| 20260507121008 | 5 | 135 | 1.6 | 4.8 | 0.00 | 0.41 | 0.00 | 91 | 1003.1 |
| 20260507120508 | 5 | 145 | 1.6 | 3.2 | 0.00 | 0.41 | 0.00 | 92 | 1003.0 |
| 20260507120020 | 5 | 1 | 1.6 | 3.2 | 0.00 | 0.41 | 0.00 | 92 | 1003.0 |
| 20260507120008 | 5 | 360 | 1.6 | 3.2 | 0.00 | 0.41 | 0.00 | 92 | 1003.0 |
| 20260507115520 | 5 | 161 | 1.6 | 3.2 | 0.00 | 0.51 | 0.00 | 92 | 1003.0 |
| 20260507115507 | 5 | 127 | 1.6 | 3.2 | 0.00 | 0.51 | 0.00 | 92 | 1003.0 |
| 20260507115022 | 4 | 1 | 0.0 | 3.2 | 0.00 | 0.51 | 0.00 | 92 | 1003.1 |
| 20260507114521 | 4 | 1 | 0.0 | 1.6 | 0.00 | 0.51 | 0.00 | 91 | 1003.0 |
| 20260507114508 | 4 | 269 | 0.0 | 1.6 | 0.00 | 0.51 | 0.00 | 91 | 1003.0 |
| 20260507114013 | 4 | 89 | 0.0 | 1.6 | 0.00 | 0.51 | 0.00 | 91 | 1003.0 |
| 20260507113520 | 4 | 46 | 0.0 | 3.2 | 0.00 | 0.51 | 0.00 | 91 | 1003.0 |
| 20260507113508 | 4 | 178 | 0.0 | 3.2 | 0.00 | 0.51 | 0.00 | 91 | 1003.0 |
| 20260507113020 | 4 | 20 | 0.0 | 3.2 | 0.00 | 0.51 | 0.00 | 90 | 1003.0 |
| 20260507113007 | 4 | 324 | 0.0 | 3.2 | 0.00 | 0.51 | 0.00 | 90 | 1003.0 |
| 20260507112508 | 3 | 89 | 1.6 | 3.2 | 0.00 | 0.51 | 0.00 | 90 | 1003.0 |
| 20260507112014 | 3 | 269 | 0.0 | 1.6 | 0.00 | 0.51 | 0.00 | 89 | 1002.9 |
| 20260507111520 | 3 | 1 | 0.0 | 1.6 | 0.00 | 0.51 | 0.00 | 89 | 1002.9 |
| 20260507111509 | 3 | 46 | 0.0 | 1.6 | 0.00 | 0.51 | 0.00 | 89 | 1002.9 |
| 20260507111032 | 3 | 314 | 0.0 | 1.6 | 0.00 | 0.51 | 0.00 | 89 | 1002.8 |
| 20260507111012 | 3 | 314 | 0.0 | 1.6 | 0.00 | 0.51 | 0.00 | 89 | 1002.8 |
| 20260507110520 | 3 | 314 | 0.0 | 1.6 | 0.00 | 0.51 | 0.00 | 89 | 1002.6 |
| 20260507110508 | 3 | 269 | 0.0 | 1.6 | 0.00 | 0.51 | 0.00 | 89 | 1002.6 |
| 20260507110032 | 3 | 314 | 0.0 | 1.6 | 0.00 | 0.51 | 0.00 | 89 | 1002.5 |
| 20260507110008 | 3 | 1 | 0.0 | 1.6 | 0.00 | 0.51 | 0.00 | 89 | 1002.5 |
| 20260507105508 | 3 | 295 | 0.0 | 1.6 | 0.00 | 0.64 | 0.00 | 89 | 1002.5 |
| 20260507105006 | 4 | 295 | 0.0 | 1.6 | 0.00 | 0.64 | 0.00 | 88 | 1002.4 |
| 20260507104531 | 4 | 1 | 0.0 | 1.6 | 0.00 | 0.64 | 0.00 | 89 | 1002.2 |
| 20260507104508 | 4 | 46 | 0.0 | 1.6 | 0.00 | 0.64 | 0.00 | 89 | 1002.2 |
| 20260507104008 | 4 | 178 | 0.0 | 1.6 | 0.00 | 0.64 | 0.00 | 89 | 1002.3 |
| 20260507103518 | 4 | 269 | 0.0 | 1.6 | 0.00 | 0.64 | 0.00 | 89 | 1002.2 |
| 20260507103020 | 4 | 1 | 0.0 | 1.6 | 0.00 | 0.64 | 0.00 | 89 | 1002.2 |
| 20260507103008 | 4 | 314 | 0.0 | 1.6 | 0.00 | 0.64 | 0.00 | 89 | 1002.2 |
| 20260507102508 | 4 | 314 | 0.0 | 1.6 | 0.00 | 0.64 | 0.00 | 89 | 1002.3 |
| 20260507102031 | 4 | 269 | 0.0 | 1.6 | 0.00 | 0.64 | 0.00 | 88 | 1002.4 |
| 20260507102012 | 4 | 46 | 0.0 | 1.6 | 0.00 | 0.64 | 0.00 | 88 | 1002.4 |
| 20260507101521 | 4 | 178 | 0.0 | 1.6 | 0.00 | 0.64 | 0.00 | 89 | 1002.4 |
| 20260507101508 | 4 | 269 | 0.0 | 1.6 | 0.00 | 0.64 | 0.00 | 89 | 1002.4 |
| 20260507101020 | 4 | 89 | 0.0 | 1.6 | 0.00 | 0.64 | 0.00 | 89 | 1002.3 |
| 20260507101008 | 4 | 46 | 0.0 | 1.6 | 0.00 | 0.64 | 0.00 | 89 | 1002.3 |
| 20260507100520 | 4 | 360 | 0.0 | 1.6 | 0.00 | 0.64 | 0.00 | 89 | 1002.4 |
| 20260507100508 | 4 | 295 | 0.0 | 1.6 | 0.00 | 0.64 | 0.00 | 89 | 1002.4 |
| 20260507100008 | 4 | 269 | 0.0 | 1.6 | 0.00 | 0.64 | 0.00 | 89 | 1002.3 |
| 20260507095518 | 4 | 223 | 0.0 | 1.6 | 0.00 | 0.79 | 0.00 | 88 | 1002.3 |
| 20260507095008 | 5 | 223 | 0.0 | 1.6 | 0.00 | 0.79 | 0.00 | 89 | 1002.4 |
| 20260507094521 | 5 | 269 | 0.0 | 0.0 | 0.00 | 0.79 | 0.00 | 89 | 1002.4 |
| 20260507094508 | 5 | 46 | 0.0 | 0.0 | 0.00 | 0.79 | 0.00 | 89 | 1002.4 |
| 20260507094008 | 5 | 269 | 0.0 | 1.6 | 0.00 | 0.79 | 0.00 | 89 | 1002.2 |
| 20260507093520 | 5 | 46 | 0.0 | 1.6 | 0.00 | 0.79 | 0.00 | 89 | 1002.2 |
| 20260507093507 | 5 | 269 | 0.0 | 1.6 | 0.00 | 0.79 | 0.00 | 89 | 1002.2 |
| 20260507093020 | 5 | 269 | 1.6 | 1.6 | 0.00 | 0.79 | 0.00 | 89 | 1002.3 |
| 20260507093013 | 5 | 302 | 1.6 | 1.6 | 0.00 | 0.79 | 0.00 | 89 | 1002.3 |
| 20260507092508 | 5 | 295 | 0.0 | 1.6 | 0.00 | 0.79 | 0.00 | 89 | 1002.2 |
| 20260507092012 | 5 | 269 | 0.0 | 1.6 | 0.00 | 0.79 | 0.00 | 89 | 1002.1 |
| 20260507091514 | 5 | 314 | 0.0 | 1.6 | 0.00 | 0.79 | 0.00 | 89 | 1002.1 |
| 20260507091008 | 5 | 295 | 0.0 | 1.6 | 0.00 | 0.79 | 0.00 | 89 | 1002.1 |
| 20260507090520 | 5 | 1 | 0.0 | 1.6 | 0.00 | 0.79 | 0.00 | 89 | 1002.1 |
| 20260507090508 | 5 | 314 | 0.0 | 1.6 | 0.00 | 0.79 | 0.00 | 89 | 1002.1 |
| 20260507090020 | 5 | 269 | 0.0 | 1.6 | 0.00 | 0.79 | 0.00 | 89 | 1002.1 |
| 20260507090008 | 5 | 46 | 0.0 | 1.6 | 0.00 | 0.79 | 0.00 | 89 | 1002.1 |
| 20260507085508 | 5 | 46 | 0.0 | 1.6 | 0.00 | 0.97 | 0.00 | 89 | 1002.1 |
| 20260507085008 | 5 | 331 | 0.0 | 1.6 | 0.00 | 0.97 | 0.00 | 89 | 1002.0 |
| 20260507084507 | 5 | 314 | 0.0 | 1.6 | 0.00 | 0.97 | 0.00 | 89 | 1001.9 |
| 20260507084019 | 5 | 1 | 1.6 | 1.6 | 0.00 | 0.97 | 0.00 | 88 | 1001.9 |
| 20260507083508 | 5 | 314 | 0.0 | 1.6 | 0.00 | 0.97 | 0.00 | 88 | 1001.9 |
| 20260507083008 | 5 | 331 | 0.0 | 1.6 | 0.00 | 0.97 | 0.00 | 88 | 1001.8 |
| 20260507082508 | 5 | 1 | 0.0 | 1.6 | 0.00 | 0.97 | 0.00 | 88 | 1001.8 |
| 20260507082012 | 5 | 269 | 0.0 | 1.6 | 0.00 | 0.97 | 0.00 | 89 | 1001.7 |
| 20260507081521 | 5 | 46 | 0.0 | 1.6 | 0.00 | 0.97 | 0.00 | 88 | 1001.7 |
| 20260507081508 | 5 | 269 | 0.0 | 1.6 | 0.00 | 0.97 | 0.00 | 88 | 1001.7 |
| 20260507081030 | 5 | 314 | 0.0 | 1.6 | 0.00 | 0.97 | 0.00 | 88 | 1001.8 |
| 20260507080507 | 5 | 1 | 0.0 | 1.6 | 0.00 | 0.97 | 0.00 | 88 | 1001.7 |
| 20260507080020 | 5 | 314 | 0.0 | 1.6 | 0.00 | 0.97 | 0.00 | 88 | 1001.8 |
| 20260507080012 | 5 | 1 | 0.0 | 1.6 | 0.00 | 0.97 | 0.00 | 88 | 1001.8 |
| 20260507075508 | 5 | 314 | 0.0 | 1.6 | 0.00 | 1.14 | 0.00 | 88 | 1001.8 |
| 20260507075012 | 5 | 1 | 0.0 | 1.6 | 0.00 | 1.14 | 0.00 | 88 | 1001.8 |
| 20260507074520 | 5 | 223 | 0.0 | 1.6 | 0.00 | 1.14 | 0.00 | 88 | 1001.7 |
| 20260507074507 | 5 | 178 | 0.0 | 1.6 | 0.00 | 1.14 | 0.00 | 88 | 1001.7 |
| 20260507074007 | 5 | 223 | 0.0 | 1.6 | 0.00 | 1.14 | 0.00 | 88 | 1001.7 |
| 20260507073522 | 6 | 46 | 0.0 | 1.6 | 0.00 | 1.14 | 0.00 | 88 | 1001.7 |
| 20260507073518 | 6 | 269 | 0.0 | 1.6 | 0.00 | 1.14 | 0.00 | 88 | 1001.7 |
| 20260507073020 | 6 | 314 | 0.0 | 1.6 | 0.00 | 1.14 | 0.00 | 88 | 1001.7 |
| 20260507073008 | 6 | 286 | 0.0 | 1.6 | 0.00 | 1.14 | 0.00 | 88 | 1001.7 |
| 20260507072508 | 6 | 1 | 0.0 | 1.6 | 0.00 | 1.14 | 0.00 | 88 | 1001.7 |
| 20260507072012 | 6 | 269 | 0.0 | 1.6 | 0.00 | 1.14 | 0.00 | 88 | 1001.8 |
| 20260507071520 | 6 | 1 | 1.6 | 1.6 | 0.00 | 1.14 | 0.00 | 88 | 1001.8 |
| 20260507071508 | 6 | 314 | 1.6 | 1.6 | 0.00 | 1.14 | 0.00 | 88 | 1001.8 |
| 20260507071019 | 6 | 269 | 0.0 | 1.6 | 0.00 | 1.14 | 0.00 | 88 | 1001.8 |
| 20260507070508 | 6 | 269 | 0.0 | 1.6 | 0.00 | 1.14 | 0.00 | 88 | 1001.9 |
| 20260507070012 | 6 | 269 | 0.0 | 1.6 | 0.00 | 1.14 | 0.00 | 87 | 1001.9 |
| 20260507065531 | 6 | 46 | 0.0 | 1.6 | 0.00 | 1.32 | 0.00 | 87 | 1001.8 |
| 20260507065018 | 6 | 314 | 0.0 | 1.6 | 0.00 | 1.32 | 0.00 | 87 | 1001.7 |
| 20260507064518 | 6 | 1 | 0.0 | 1.6 | 0.00 | 1.32 | 0.00 | 87 | 1001.8 |
| 20260507064008 | 6 | 46 | 0.0 | 0.0 | 0.00 | 1.32 | 0.00 | 87 | 1001.8 |
| 20260507063519 | 6 | 178 | 0.0 | 0.0 | 0.00 | 1.32 | 0.00 | 87 | 1001.8 |
| 20260507063031 | 6 | 46 | 0.0 | 1.6 | 0.00 | 1.32 | 0.00 | 86 | 1001.9 |
| 20260507062520 | 6 | 314 | 0.0 | 1.6 | 0.00 | 1.32 | 0.00 | 87 | 1002.0 |
| 20260507062508 | 6 | 269 | 0.0 | 1.6 | 0.00 | 1.32 | 0.00 | 87 | 1002.0 |
| 20260507062022 | 6 | 314 | 0.0 | 1.6 | 0.00 | 1.32 | 0.00 | 86 | 1002.0 |
| 20260507061531 | 6 | 1 | 0.0 | 1.6 | 0.00 | 1.32 | 0.00 | 86 | 1002.0 |
| 20260507061508 | 6 | 331 | 0.0 | 1.6 | 0.00 | 1.32 | 0.00 | 86 | 1002.0 |
| 20260507061012 | 6 | 314 | 0.0 | 1.6 | 0.00 | 1.32 | 0.00 | 86 | 1001.9 |
| 20260507060508 | 6 | 314 | 0.0 | 1.6 | 0.00 | 1.32 | 0.00 | 86 | 1001.9 |
| 20260507060022 | 6 | 269 | 0.0 | 1.6 | 0.00 | 1.32 | 0.00 | 86 | 1001.9 |
| 20260507060019 | 6 | 314 | 0.0 | 1.6 | 0.00 | 1.32 | 0.00 | 86 | 1001.9 |
| 20260507055509 | 6 | 1 | 0.0 | 1.6 | 0.00 | 1.47 | 0.00 | 86 | 1002.0 |
| 20260507055007 | 6 | 1 | 0.0 | 1.6 | 0.00 | 1.47 | 0.00 | 86 | 1001.9 |
| 20260507054520 | 6 | 240 | 0.0 | 1.6 | 0.00 | 1.47 | 0.00 | 86 | 1002.0 |
| 20260507054507 | 6 | 269 | 0.0 | 1.6 | 0.00 | 1.47 | 0.00 | 86 | 1002.0 |
| 20260507054009 | 7 | 240 | 0.0 | 0.0 | 0.00 | 1.47 | 0.00 | 86 | 1001.9 |
| 20260507053520 | 7 | 223 | 0.0 | 1.6 | 0.00 | 1.47 | 0.00 | 86 | 1002.0 |
| 20260507053507 | 7 | 178 | 0.0 | 1.6 | 0.00 | 1.47 | 0.00 | 86 | 1002.0 |
| 20260507053007 | 7 | 269 | 0.0 | 1.6 | 0.00 | 1.47 | 0.00 | 86 | 1002.1 |
| 20260507052507 | 7 | 223 | 0.0 | 1.6 | 0.00 | 1.47 | 0.00 | 86 | 1002.0 |
| 20260507052012 | 7 | 269 | 0.0 | 1.6 | 0.00 | 1.47 | 0.00 | 86 | 1002.0 |
| 20260507051521 | 7 | 314 | 0.0 | 1.6 | 0.00 | 1.47 | 0.00 | 85 | 1002.0 |
| 20260507051508 | 7 | 1 | 0.0 | 1.6 | 0.00 | 1.47 | 0.00 | 85 | 1002.0 |
| 20260507051020 | 7 | 1 | 1.6 | 1.6 | 0.00 | 1.47 | 0.00 | 85 | 1002.0 |
| 20260507051008 | 7 | 314 | 1.6 | 1.6 | 0.00 | 1.47 | 0.00 | 85 | 1002.0 |
| 20260507050520 | 7 | 295 | 0.0 | 1.6 | 0.00 | 1.47 | 0.00 | 85 | 1001.9 |
| 20260507050508 | 7 | 314 | 0.0 | 1.6 | 0.00 | 1.47 | 0.00 | 85 | 1001.9 |
| 20260507050020 | 7 | 269 | 0.0 | 1.6 | 0.00 | 1.47 | 0.00 | 86 | 1002.0 |
| 20260507050008 | 7 | 46 | 0.0 | 1.6 | 0.00 | 1.47 | 0.00 | 86 | 1002.0 |
| 20260507045508 | 7 | 269 | 0.0 | 1.6 | 0.00 | 1.57 | 0.00 | 86 | 1002.1 |
| 20260507045020 | 7 | 314 | 0.0 | 1.6 | 0.00 | 1.57 | 0.00 | 85 | 1002.0 |
| 20260507045008 | 7 | 269 | 0.0 | 1.6 | 0.00 | 1.57 | 0.00 | 85 | 1002.0 |
| 20260507044521 | 7 | 269 | 0.0 | 1.6 | 0.00 | 1.57 | 0.00 | 85 | 1002.0 |
| 20260507044508 | 7 | 46 | 0.0 | 1.6 | 0.00 | 1.57 | 0.00 | 85 | 1002.0 |
| 20260507044008 | 7 | 178 | 0.0 | 1.6 | 0.00 | 1.57 | 0.00 | 85 | 1002.1 |
| 20260507043508 | 7 | 223 | 0.0 | 1.6 | 0.00 | 1.57 | 0.00 | 85 | 1002.2 |
| 20260507043020 | 7 | 152 | 0.0 | 1.6 | 0.00 | 1.57 | 0.00 | 85 | 1002.2 |
| 20260507043007 | 7 | 223 | 0.0 | 1.6 | 0.00 | 1.57 | 0.00 | 85 | 1002.2 |
| 20260507042508 | 7 | 152 | 0.0 | 1.6 | 0.00 | 1.57 | 0.00 | 84 | 1002.2 |
| 20260507042008 | 8 | 46 | 0.0 | 1.6 | 0.00 | 1.57 | 0.00 | 84 | 1002.1 |
| 20260507041520 | 8 | 178 | 0.0 | 1.6 | 0.00 | 1.57 | 0.00 | 84 | 1002.0 |
| 20260507041508 | 8 | 135 | 0.0 | 1.6 | 0.00 | 1.57 | 0.00 | 84 | 1002.0 |
| 20260507041007 | 8 | 269 | 0.0 | 1.6 | 0.00 | 1.57 | 0.00 | 83 | 1002.2 |
| 20260507040531 | 8 | 178 | 0.0 | 1.6 | 0.00 | 1.57 | 0.00 | 83 | 1002.2 |
| 20260507040508 | 8 | 46 | 0.0 | 1.6 | 0.00 | 1.57 | 0.00 | 83 | 1002.2 |
| 20260507040013 | 8 | 223 | 0.0 | 1.6 | 0.00 | 1.57 | 0.00 | 82 | 1002.2 |
| 20260507035518 | 8 | 223 | 0.0 | 0.0 | 0.00 | 1.70 | 1.57 | 81 | 1002.0 |
| 20260507035007 | 8 | 46 | 0.0 | 1.6 | 0.00 | 1.70 | 1.57 | 81 | 1002.0 |
| 20260507034507 | 8 | 240 | 0.0 | 1.6 | 0.00 | 1.70 | 1.57 | 81 | 1001.9 |
| 20260507034008 | 8 | 331 | 0.0 | 1.6 | 0.00 | 1.70 | 1.57 | 81 | 1002.0 |
| 20260507033521 | 8 | 46 | 0.0 | 1.6 | 0.00 | 1.70 | 1.57 | 81 | 1002.0 |
| 20260507033508 | 8 | 269 | 0.0 | 1.6 | 0.00 | 1.70 | 1.57 | 81 | 1002.0 |
| 20260507033008 | 9 | 46 | 0.0 | 1.6 | 0.00 | 1.70 | 1.57 | 80 | 1002.1 |
| 20260507032519 | 9 | 269 | 0.0 | 1.6 | 0.00 | 1.70 | 1.57 | 80 | 1002.1 |
| 20260507032023 | 9 | 152 | 0.0 | 1.6 | 0.00 | 1.70 | 1.57 | 80 | 1002.1 |
| 20260507031508 | 9 | 206 | 0.0 | 1.6 | 0.00 | 1.70 | 1.57 | 79 | 1002.2 |
| 20260507031010 | 10 | 135 | 0.0 | 1.6 | 0.00 | 1.70 | 1.57 | 79 | 1002.1 |
| 20260507030506 | 10 | 197 | 1.6 | 1.6 | 0.00 | 1.70 | 1.57 | 78 | 1002.1 |
| 20260507030021 | 10 | 178 | 0.0 | 1.6 | 0.00 | 1.70 | 1.57 | 76 | 1002.0 |
| 20260507030008 | 10 | 206 | 0.0 | 1.6 | 0.00 | 1.70 | 1.57 | 76 | 1002.0 |
| 20260507025520 | 10 | 331 | 0.0 | 1.6 | 0.00 | 1.93 | 1.57 | 75 | 1002.1 |
| 20260507025507 | 10 | 314 | 0.0 | 1.6 | 0.00 | 1.93 | 1.57 | 75 | 1002.1 |
| 20260507025007 | 10 | 314 | 0.0 | 0.0 | 0.00 | 1.93 | 1.57 | 76 | 1002.0 |
| 20260507024520 | 10 | 269 | 0.0 | 0.0 | 0.00 | 1.93 | 1.57 | 75 | 1002.0 |
| 20260507024508 | 10 | 1 | 0.0 | 0.0 | 0.00 | 1.93 | 1.57 | 75 | 1002.0 |
| 20260507024019 | 10 | 269 | 0.0 | 1.6 | 0.00 | 1.93 | 1.57 | 73 | 1002.0 |
| 20260507023531 | 10 | 46 | 0.0 | 1.6 | 0.00 | 1.93 | 1.57 | 74 | 1002.0 |
| 20260507023508 | 10 | 269 | 0.0 | 1.6 | 0.00 | 1.93 | 1.57 | 74 | 1002.0 |
| 20260507023020 | 11 | 269 | 0.0 | 0.0 | 0.00 | 1.93 | 1.57 | 73 | 1001.9 |
| 20260507023008 | 11 | 46 | 0.0 | 0.0 | 0.00 | 1.93 | 1.57 | 73 | 1001.9 |
| 20260507022520 | 11 | 1 | 0.0 | 0.0 | 0.00 | 1.93 | 1.57 | 72 | 1001.9 |
| 20260507022015 | 11 | 223 | 0.0 | 1.6 | 0.00 | 1.93 | 1.57 | 71 | 1002.0 |
| 20260507021523 | 11 | 269 | 0.0 | 1.6 | 0.00 | 1.93 | 1.57 | 70 | 1001.8 |
| 20260507021519 | 11 | 269 | 0.0 | 1.6 | 0.00 | 1.93 | 1.57 | 69 | 1001.8 |
| 20260507021006 | 11 | 314 | 0.0 | 1.6 | 0.00 | 1.93 | 1.57 | 69 | 1001.7 |
| 20260507020520 | 11 | 314 | 0.0 | 1.6 | 0.00 | 1.93 | 1.57 | 70 | 1001.7 |
| 20260507020509 | 11 | 295 | 0.0 | 1.6 | 0.00 | 1.93 | 1.57 | 70 | 1001.7 |
| 20260507020017 | 11 | 46 | 0.0 | 1.6 | 0.00 | 1.93 | 1.57 | 68 | 1001.7 |
| 20260507015507 | 11 | 331 | 0.0 | 1.6 | 0.00 | 2.06 | 1.57 | 67 | 1001.7 |
| 20260507015008 | 11 | 314 | 0.0 | 0.0 | 0.00 | 2.06 | 1.57 | 69 | 1001.7 |
| 20260507014519 | 12 | 178 | 0.0 | 0.0 | 0.00 | 2.06 | 1.57 | 69 | 1001.6 |
| 20260507014019 | 12 | 314 | 0.0 | 0.0 | 0.00 | 2.06 | 1.57 | 66 | 1001.6 |
| 20260507013520 | 12 | 1 | 0.0 | 0.0 | 0.00 | 2.06 | 1.57 | 66 | 1001.6 |
| 20260507013509 | 12 | 46 | 0.0 | 0.0 | 0.00 | 2.06 | 1.57 | 66 | 1001.6 |
| 20260507013020 | 12 | 269 | 0.0 | 1.6 | 0.00 | 2.06 | 1.57 | 64 | 1001.6 |
| 20260507013008 | 12 | 46 | 0.0 | 1.6 | 0.00 | 2.06 | 1.57 | 64 | 1001.6 |
| 20260507012508 | 12 | 314 | 0.0 | 1.6 | 0.00 | 2.06 | 1.57 | 62 | 1001.7 |
| 20260507012007 | 12 | 223 | 0.0 | 1.6 | 0.00 | 2.06 | 1.57 | 62 | 1001.5 |
| 20260507011522 | 12 | 46 | 0.0 | 1.6 | 0.00 | 2.06 | 1.57 | 62 | 1001.3 |
| 20260507011506 | 12 | 314 | 0.0 | 1.6 | 0.00 | 2.06 | 1.57 | 62 | 1001.3 |
| 20260507011020 | 12 | 314 | 0.0 | 1.6 | 0.00 | 2.06 | 1.57 | 61 | 1001.2 |
| 20260507011013 | 12 | 46 | 0.0 | 1.6 | 0.00 | 2.06 | 1.57 | 61 | 1001.2 |
| 20260507010520 | 12 | 269 | 0.0 | 1.6 | 0.00 | 2.06 | 1.57 | 60 | 1001.1 |
| 20260507010508 | 12 | 314 | 0.0 | 1.6 | 0.00 | 2.06 | 1.57 | 61 | 1001.1 |
| 20260507010009 | 13 | 295 | 1.6 | 1.6 | 0.00 | 2.06 | 1.57 | 61 | 1001.1 |
| 20260507005508 | 13 | 269 | 0.0 | 1.6 | 0.00 | 2.08 | 1.57 | 60 | 1001.1 |
| 20260507005008 | 13 | 331 | 0.0 | 3.2 | 0.00 | 2.08 | 1.57 | 60 | 1001.2 |
| 20260507004521 | 13 | 269 | 0.0 | 3.2 | 0.00 | 2.08 | 1.57 | 60 | 1001.1 |
| 20260507004507 | 13 | 314 | 0.0 | 3.2 | 0.00 | 2.08 | 1.57 | 60 | 1001.1 |
| 20260507004021 | 13 | 286 | 1.6 | 3.2 | 0.00 | 2.08 | 1.57 | 58 | 1001.0 |
| 20260507004010 | 13 | 314 | 0.0 | 3.2 | 0.00 | 2.08 | 1.57 | 58 | 1001.0 |
| 20260507003520 | 13 | 314 | 1.6 | 6.4 | 0.00 | 2.08 | 1.57 | 58 | 1001.2 |
| 20260507003508 | 13 | 269 | 1.6 | 6.4 | 0.00 | 2.08 | 1.57 | 58 | 1001.2 |
| 20260507003009 | 13 | 152 | 1.6 | 8.0 | 0.00 | 2.08 | 1.57 | 58 | 1001.0 |
| 20260507002506 | 13 | 46 | 0.0 | 8.0 | 0.00 | 2.08 | 1.57 | 58 | 1001.2 |
| 20260507002012 | 13 | 286 | 1.6 | 6.4 | 0.00 | 2.08 | 1.57 | 58 | 1000.9 |
| 20260507001520 | 13 | 334 | 1.6 | 6.4 | 0.00 | 2.08 | 1.57 | 58 | 1000.9 |
| 20260507001508 | 13 | 340 | 1.6 | 6.4 | 0.00 | 2.08 | 1.57 | 58 | 1000.9 |
| 20260507001020 | 13 | 336 | 1.6 | 6.4 | 0.00 | 2.08 | 1.57 | 57 | 1000.9 |
| 20260507001012 | 13 | 324 | 1.6 | 6.4 | 0.00 | 2.08 | 1.57 | 57 | 1000.9 |
| 20260507000532 | 13 | 295 | 1.6 | 8.0 | 0.00 | 2.08 | 1.57 | 58 | 1000.8 |
| 20260507000507 | 13 | 269 | 1.6 | 8.0 | 0.00 | 2.08 | 1.57 | 58 | 1000.8 |
| 20260507000020 | 14 | 314 | 3.2 | 8.0 | 0.00 | 2.08 | 1.57 | 56 | 1000.8 |
| 20260507000008 | 14 | 28 | 3.2 | 8.0 | 0.00 | 2.08 | 1.57 | 57 | 1000.8 |
| 20260506235507 | 14 | 178 | 1.6 | 8.0 | 0.00 | 2.11 | 1.57 | 60 | 1000.8 |
| 20260506235020 | 14 | 269 | 1.6 | 8.0 | 0.00 | 2.11 | 1.57 | 58 | 1000.8 |
| 20260506235008 | 14 | 15 | 3.2 | 8.0 | 0.00 | 2.11 | 1.57 | 58 | 1000.8 |
| 20260506234520 | 14 | 314 | 1.6 | 4.8 | 0.00 | 2.11 | 1.57 | 59 | 1000.7 |
| 20260506234508 | 14 | 286 | 1.6 | 4.8 | 0.00 | 2.11 | 1.57 | 59 | 1000.7 |
| 20260506234019 | 14 | 353 | 1.6 | 8.0 | 0.00 | 2.11 | 1.57 | 60 | 1000.6 |
| 20260506233508 | 14 | 314 | 3.2 | 8.0 | 0.00 | 2.11 | 1.57 | 57 | 1000.5 |
| 20260506233021 | 14 | 331 | 3.2 | 6.4 | 0.00 | 2.11 | 1.57 | 57 | 1000.5 |
| 20260506233011 | 14 | 323 | 3.2 | 6.4 | 0.00 | 2.11 | 1.57 | 57 | 1000.5 |
| 20260506232519 | 14 | 331 | 1.6 | 4.8 | 0.00 | 2.11 | 1.57 | 56 | 1000.5 |
| 20260506232008 | 14 | 216 | 1.6 | 9.7 | 0.00 | 2.11 | 1.57 | 56 | 1000.5 |
| 20260506231531 | 15 | 157 | 3.2 | 9.7 | 0.00 | 2.11 | 1.57 | 55 | 1000.4 |
| 20260506231508 | 14 | 89 | 3.2 | 9.7 | 0.00 | 2.11 | 1.57 | 55 | 1000.4 |
| 20260506231008 | 15 | 240 | 1.6 | 4.8 | 0.00 | 2.11 | 1.57 | 55 | 1000.3 |
| 20260506230520 | 15 | 152 | 3.2 | 6.4 | 0.00 | 2.11 | 1.57 | 55 | 1000.1 |
| 20260506230508 | 15 | 20 | 3.2 | 6.4 | 0.00 | 2.11 | 1.57 | 55 | 1000.1 |
| 20260506230020 | 15 | 35 | 3.2 | 9.7 | 0.00 | 2.11 | 1.57 | 55 | 1000.0 |
| 20260506230012 | 15 | 6 | 3.2 | 9.7 | 0.00 | 2.11 | 1.57 | 55 | 1000.0 |
| 20260506225508 | 15 | 328 | 3.2 | 9.7 | 0.00 | 2.16 | 1.57 | 53 | 1000.0 |
| 20260506225020 | 15 | 18 | 3.2 | 6.4 | 0.00 | 2.16 | 1.57 | 55 | 1000.0 |
| 20260506225007 | 15 | 343 | 3.2 | 6.4 | 0.00 | 2.16 | 1.57 | 54 | 1000.0 |
| 20260506224529 | 15 | 178 | 1.6 | 6.4 | 0.00 | 2.16 | 1.57 | 56 | 1000.3 |
| 20260506224508 | 15 | 314 | 3.2 | 6.4 | 0.00 | 2.16 | 1.57 | 56 | 1000.3 |
| 20260506224019 | 15 | 89 | 1.6 | 11.3 | 0.00 | 2.16 | 1.57 | 54 | 1000.3 |
| 20260506223533 | 15 | 346 | 4.8 | 11.3 | 0.00 | 2.16 | 1.57 | 55 | 1000.2 |
| 20260506223508 | 15 | 326 | 4.8 | 11.3 | 0.00 | 2.16 | 1.57 | 55 | 1000.2 |
| 20260506223020 | 15 | 11 | 1.6 | 6.4 | 0.00 | 2.16 | 1.57 | 53 | 1000.2 |
| 20260506223008 | 15 | 1 | 1.6 | 6.4 | 0.00 | 2.16 | 1.57 | 53 | 1000.2 |
| 20260506222508 | 15 | 135 | 1.6 | 6.4 | 0.00 | 2.16 | 1.57 | 54 | 1000.4 |
| 20260506222007 | 15 | 269 | 3.2 | 6.4 | 0.00 | 2.16 | 1.57 | 54 | 1000.5 |
| 20260506221531 | 15 | 321 | 1.6 | 6.4 | 0.00 | 2.16 | 1.57 | 52 | 1000.5 |
| 20260506221507 | 15 | 331 | 1.6 | 6.4 | 0.00 | 2.16 | 1.57 | 53 | 1000.5 |
| 20260506221020 | 15 | 1 | 1.6 | 8.0 | 0.00 | 2.16 | 1.57 | 52 | 1000.4 |
| 20260506221008 | 15 | 20 | 1.6 | 8.0 | 0.00 | 2.16 | 1.57 | 52 | 1000.4 |
| 20260506220520 | 15 | 72 | 3.2 | 8.0 | 0.00 | 2.16 | 1.57 | 50 | 1000.4 |
| 20260506220508 | 15 | 53 | 3.2 | 8.0 | 0.00 | 2.16 | 1.57 | 50 | 1000.4 |
| 20260506220020 | 15 | 28 | 1.6 | 6.4 | 0.00 | 2.16 | 1.57 | 54 | 1000.5 |
| 20260506220008 | 15 | 178 | 1.6 | 6.4 | 0.00 | 2.16 | 1.57 | 54 | 1000.5 |
| 20260506215510 | 15 | 240 | 3.2 | 8.0 | 0.00 | 2.41 | 1.57 | 52 | 1000.6 |
| 20260506215008 | 15 | 11 | 3.2 | 9.7 | 0.00 | 2.41 | 1.57 | 53 | 1000.6 |
| 20260506214530 | 15 | 327 | 4.8 | 9.7 | 0.00 | 2.41 | 1.57 | 53 | 1000.7 |
| 20260506214020 | 15 | 324 | 3.2 | 8.0 | 0.00 | 2.41 | 1.57 | 52 | 1000.6 |
| 20260506214009 | 15 | 325 | 3.2 | 6.4 | 0.00 | 2.41 | 1.57 | 53 | 1000.6 |
| 20260506213520 | 15 | 342 | 3.2 | 8.0 | 0.00 | 2.41 | 1.57 | 52 | 1000.6 |
| 20260506213508 | 15 | 328 | 3.2 | 8.0 | 0.00 | 2.41 | 1.57 | 52 | 1000.6 |
| 20260506213031 | 15 | 344 | 3.2 | 9.7 | 0.00 | 2.41 | 1.57 | 55 | 1000.6 |
| 20260506213008 | 15 | 324 | 3.2 | 9.7 | 0.00 | 2.41 | 1.57 | 55 | 1000.6 |
| 20260506212508 | 15 | 331 | 3.2 | 9.7 | 0.00 | 2.41 | 1.57 | 49 | 1000.6 |
| 20260506212034 | 15 | 348 | 4.8 | 9.7 | 0.00 | 2.41 | 1.57 | 49 | 1000.4 |
| 20260506211520 | 15 | 269 | 3.2 | 9.7 | 0.00 | 2.41 | 1.57 | 48 | 1000.4 |
| 20260506211508 | 15 | 314 | 3.2 | 9.7 | 0.00 | 2.41 | 1.57 | 48 | 1000.4 |
| 20260506211008 | 15 | 1 | 1.6 | 9.7 | 0.00 | 2.41 | 1.57 | 48 | 1000.5 |
| 20260506210507 | 15 | 163 | 3.2 | 8.0 | 0.00 | 2.41 | 1.57 | 49 | 1000.3 |
| 20260506210020 | 15 | 63 | 3.2 | 8.0 | 0.00 | 2.41 | 1.57 | 50 | 1000.3 |
| 20260506210008 | 15 | 349 | 3.2 | 8.0 | 0.00 | 2.41 | 1.57 | 50 | 1000.3 |
| 20260506205509 | 15 | 135 | 3.2 | 8.0 | 0.00 | 3.23 | 1.57 | 53 | 1000.2 |
| 20260506205019 | 15 | 178 | 3.2 | 8.0 | 0.00 | 3.23 | 1.57 | 53 | 1000.2 |
| 20260506204520 | 16 | 327 | 3.2 | 8.0 | 0.00 | 3.23 | 1.57 | 52 | 1000.1 |
| 20260506204508 | 16 | 325 | 3.2 | 8.0 | 0.00 | 3.23 | 1.57 | 52 | 1000.1 |
| 20260506204009 | 16 | 340 | 3.2 | 11.3 | 0.00 | 3.23 | 1.57 | 54 | 1000.0 |
| 20260506203533 | 16 | 63 | 4.8 | 8.0 | 0.00 | 3.23 | 1.57 | 53 | 1000.2 |
| 20260506203020 | 16 | 346 | 4.8 | 8.0 | 0.00 | 3.23 | 1.57 | 52 | 1000.3 |
| 20260506203007 | 16 | 327 | 4.8 | 8.0 | 0.00 | 3.23 | 1.57 | 54 | 1000.3 |
| 20260506202507 | 16 | 318 | 3.2 | 8.0 | 0.00 | 3.23 | 1.57 | 55 | 1000.1 |
| 20260506202042 | 16 | 63 | 3.2 | 8.0 | 0.00 | 3.23 | 1.57 | 53 | 1000.1 |
| 20260506202008 | 16 | 353 | 3.2 | 8.0 | 0.00 | 3.23 | 1.57 | 53 | 1000.1 |
| 20260506201520 | 16 | 339 | 3.2 | 9.7 | 0.00 | 3.23 | 1.57 | 54 | 1000.2 |
| 20260506201020 | 16 | 61 | 4.8 | 9.7 | 0.00 | 3.23 | 1.57 | 55 | 1000.3 |
| 20260506201008 | 16 | 344 | 4.8 | 9.7 | 0.00 | 3.23 | 1.57 | 55 | 1000.3 |
| 20260506200534 | 16 | 347 | 1.6 | 9.7 | 0.03 | 3.23 | 1.57 | 56 | 1000.4 |
| 20260506200508 | 16 | 331 | 1.6 | 9.7 | 0.03 | 3.23 | 1.57 | 56 | 1000.4 |
| 20260506200023 | 16 | 190 | 3.2 | 9.7 | 0.03 | 3.23 | 1.57 | 56 | 1000.3 |
| 20260506200008 | 16 | 105 | 3.2 | 9.7 | 0.03 | 3.23 | 1.57 | 55 | 1000.3 |
| 20260506195507 | 16 | 336 | 3.2 | 8.0 | 0.03 | 3.78 | 1.57 | 55 | 1000.3 |
| 20260506195032 | 16 | 314 | 3.2 | 8.0 | 0.03 | 3.78 | 1.57 | 54 | 1000.2 |
| 20260506194520 | 16 | 279 | 1.6 | 8.0 | 0.03 | 3.78 | 1.57 | 56 | 1000.3 |
| 20260506194508 | 16 | 147 | 1.6 | 8.0 | 0.03 | 3.78 | 1.57 | 56 | 1000.3 |
| 20260506194011 | 16 | 178 | 1.6 | 8.0 | 0.03 | 3.78 | 1.57 | 53 | 1000.3 |
| 20260506193520 | 16 | 314 | 1.6 | 6.4 | 0.03 | 3.78 | 1.57 | 49 | 1000.2 |
| 20260506193508 | 16 | 145 | 1.6 | 6.4 | 0.03 | 3.78 | 1.57 | 49 | 1000.2 |
| 20260506193020 | 16 | 319 | 1.6 | 6.4 | 0.03 | 3.78 | 1.57 | 49 | 1000.3 |
| 20260506193007 | 16 | 321 | 1.6 | 6.4 | 0.03 | 3.78 | 1.57 | 51 | 1000.3 |
| 20260506192521 | 16 | 1 | 3.2 | 6.4 | 0.03 | 3.78 | 1.57 | 52 | 1000.3 |
| 20260506192508 | 16 | 307 | 3.2 | 6.4 | 0.03 | 3.78 | 1.57 | 54 | 1000.3 |
| 20260506192021 | 16 | 324 | 1.6 | 11.3 | 0.03 | 3.78 | 1.57 | 50 | 1000.0 |
| 20260506192008 | 16 | 314 | 1.6 | 11.3 | 0.03 | 3.78 | 1.57 | 50 | 1000.0 |
| 20260506191520 | 16 | 349 | 3.2 | 11.3 | 0.03 | 3.78 | 1.57 | 50 | 999.9 |
| 20260506191508 | 16 | 327 | 3.2 | 11.3 | 0.03 | 3.78 | 1.57 | 50 | 999.9 |
| 20260506191008 | 16 | 317 | 4.8 | 8.0 | 0.00 | 3.76 | 1.55 | 54 | 999.8 |
| 20260506190520 | 16 | 190 | 3.2 | 11.3 | 0.00 | 3.76 | 1.55 | 53 | 999.8 |
| 20260506190509 | 16 | 216 | 3.2 | 11.3 | 0.00 | 3.76 | 1.55 | 53 | 999.8 |
| 20260506190031 | 16 | 187 | 3.2 | 11.3 | 0.00 | 3.76 | 1.55 | 52 | 999.8 |
| 20260506190008 | 16 | 346 | 3.2 | 11.3 | 0.00 | 3.76 | 1.55 | 52 | 999.8 |
| 20260506185519 | 16 | 25 | 3.2 | 8.0 | 0.03 | 3.76 | 1.55 | 58 | 999.9 |
| 20260506185020 | 16 | 213 | 3.2 | 9.7 | 0.03 | 3.76 | 1.55 | 53 | 999.9 |
| 20260506185008 | 16 | 178 | 3.2 | 9.7 | 0.03 | 3.76 | 1.55 | 52 | 999.9 |
| 20260506184520 | 16 | 331 | 4.8 | 9.7 | 0.03 | 3.76 | 1.55 | 52 | 999.9 |
| 20260506184508 | 16 | 9 | 4.8 | 9.7 | 0.03 | 3.76 | 1.55 | 52 | 999.9 |
| 20260506184020 | 16 | 178 | 3.2 | 9.7 | 0.03 | 3.76 | 1.55 | 51 | 999.9 |
| 20260506184008 | 16 | 240 | 3.2 | 9.7 | 0.03 | 3.76 | 1.55 | 51 | 999.9 |
| 20260506183520 | 16 | 8 | 3.2 | 9.7 | 0.03 | 3.76 | 1.55 | 54 | 999.9 |
| 20260506183509 | 16 | 340 | 3.2 | 8.0 | 0.03 | 3.76 | 1.55 | 54 | 999.9 |
| 20260506183020 | 16 | 316 | 3.2 | 11.3 | 0.03 | 3.76 | 1.55 | 54 | 999.9 |
| 20260506183007 | 16 | 336 | 3.2 | 11.3 | 0.03 | 3.76 | 1.55 | 54 | 999.9 |
| 20260506182533 | 16 | 338 | 4.8 | 11.3 | 0.03 | 3.76 | 1.55 | 51 | 999.8 |
| 20260506182508 | 16 | 328 | 4.8 | 11.3 | 0.03 | 3.76 | 1.55 | 51 | 999.8 |
| 20260506182018 | 16 | 213 | 3.2 | 6.4 | 0.03 | 3.76 | 1.55 | 53 | 999.9 |
| 20260506181520 | 16 | 269 | 3.2 | 11.3 | 0.03 | 3.76 | 1.55 | 48 | 999.8 |
| 20260506181508 | 16 | 331 | 3.2 | 11.3 | 0.03 | 3.76 | 1.55 | 50 | 999.8 |
| 20260506181019 | 16 | 150 | 4.8 | 14.5 | 0.03 | 3.76 | 1.55 | 54 | 999.8 |
| 20260506180520 | 16 | 240 | 3.2 | 14.5 | 0.03 | 3.76 | 1.55 | 55 | 999.8 |
| 20260506180508 | 16 | 152 | 4.8 | 14.5 | 0.03 | 3.76 | 1.55 | 55 | 999.8 |
| 20260506180020 | 16 | 234 | 3.2 | 9.7 | 0.05 | 3.76 | 1.55 | 55 | 999.8 |
| 20260506180013 | 16 | 250 | 3.2 | 9.7 | 0.05 | 3.76 | 1.55 | 55 | 999.8 |
| 20260506175507 | 16 | 1 | 4.8 | 8.0 | 0.03 | 3.73 | 1.52 | 54 | 1000.0 |
| 20260506175020 | 16 | 317 | 3.2 | 8.0 | 0.03 | 3.73 | 1.52 | 52 | 1000.1 |
| 20260506175008 | 16 | 1 | 3.2 | 9.7 | 0.03 | 3.73 | 1.52 | 52 | 1000.1 |
| 20260506174520 | 15 | 32 | 4.8 | 11.3 | 0.03 | 3.73 | 1.52 | 54 | 1000.3 |
| 20260506174508 | 15 | 326 | 4.8 | 11.3 | 0.03 | 3.73 | 1.52 | 54 | 1000.3 |
| 20260506174021 | 15 | 274 | 4.8 | 11.3 | 0.03 | 3.73 | 1.52 | 57 | 1000.2 |
| 20260506174011 | 15 | 4 | 4.8 | 9.7 | 0.03 | 3.73 | 1.52 | 57 | 1000.2 |
| 20260506173533 | 15 | 1 | 3.2 | 11.3 | 0.03 | 3.73 | 1.52 | 58 | 1000.4 |
| 20260506173507 | 15 | 350 | 3.2 | 11.3 | 0.03 | 3.73 | 1.52 | 58 | 1000.4 |
| 20260506173020 | 15 | 193 | 1.6 | 11.3 | 0.03 | 3.73 | 1.52 | 60 | 1000.3 |
| 20260506173008 | 15 | 89 | 3.2 | 11.3 | 0.03 | 3.73 | 1.52 | 60 | 1000.3 |
| 20260506172508 | 15 | 327 | 6.4 | 11.3 | 0.03 | 3.73 | 1.52 | 57 | 1000.4 |
| 20260506172007 | 15 | 127 | 3.2 | 11.3 | 0.03 | 3.73 | 1.52 | 56 | 1000.4 |
| 20260506171521 | 15 | 314 | 3.2 | 11.3 | 0.05 | 3.73 | 1.52 | 58 | 1000.5 |
| 20260506171508 | 15 | 340 | 3.2 | 11.3 | 0.05 | 3.73 | 1.52 | 58 | 1000.5 |
| 20260506171008 | 15 | 324 | 4.8 | 9.7 | 0.05 | 3.73 | 1.52 | 62 | 1000.5 |
| 20260506170532 | 14 | 46 | 3.2 | 8.0 | 0.05 | 3.73 | 1.52 | 60 | 1000.5 |
| 20260506170507 | 14 | 1 | 3.2 | 8.0 | 0.05 | 3.73 | 1.52 | 60 | 1000.5 |
| 20260506170024 | 14 | 351 | 3.2 | 12.9 | 0.03 | 3.71 | 1.50 | 62 | 1000.6 |
| 20260506170020 | 14 | 318 | 3.2 | 12.9 | 0.03 | 3.71 | 1.50 | 62 | 1000.6 |
| 20260506165522 | 14 | 169 | 4.8 | 12.9 | 0.03 | 3.71 | 1.50 | 64 | 1000.8 |
| 20260506165020 | 14 | 46 | 3.2 | 8.0 | 0.03 | 3.71 | 1.50 | 64 | 1000.7 |
| 20260506165008 | 14 | 323 | 3.2 | 8.0 | 0.03 | 3.71 | 1.50 | 64 | 1000.7 |
| 20260506164520 | 13 | 327 | 3.2 | 9.7 | 0.03 | 3.71 | 1.50 | 65 | 1000.7 |
| 20260506164507 | 13 | 13 | 3.2 | 9.7 | 0.03 | 3.71 | 1.50 | 65 | 1000.7 |
| 20260506164012 | 13 | 37 | 3.2 | 8.0 | 0.03 | 3.71 | 1.50 | 61 | 1000.7 |
| 20260506163520 | 13 | 349 | 4.8 | 9.7 | 0.05 | 3.71 | 1.50 | 61 | 1000.8 |
| 20260506163508 | 13 | 295 | 4.8 | 9.7 | 0.05 | 3.71 | 1.50 | 62 | 1000.8 |
| 20260506163032 | 13 | 300 | 4.8 | 9.7 | 0.05 | 3.71 | 1.50 | 63 | 1000.8 |
| 20260506163008 | 13 | 342 | 4.8 | 9.7 | 0.05 | 3.71 | 1.50 | 63 | 1000.8 |
| 20260506162508 | 13 | 9 | 3.2 | 11.3 | 0.05 | 3.71 | 1.50 | 60 | 1000.7 |
| 20260506162031 | 13 | 304 | 3.2 | 11.3 | 0.05 | 3.71 | 1.50 | 61 | 1000.6 |
| 20260506162011 | 13 | 350 | 3.2 | 11.3 | 0.05 | 3.71 | 1.50 | 61 | 1000.6 |
| 20260506161522 | 13 | 349 | 3.2 | 9.7 | 0.03 | 3.68 | 1.47 | 67 | 1000.6 |
| 20260506161519 | 13 | 37 | 3.2 | 9.7 | 0.03 | 3.68 | 1.47 | 67 | 1000.6 |
| 20260506161025 | 13 | 37 | 4.8 | 9.7 | 0.03 | 3.68 | 1.47 | 63 | 1000.6 |
| 20260506161013 | 13 | 347 | 4.8 | 9.7 | 0.03 | 3.68 | 1.47 | 63 | 1000.6 |
| 20260506160520 | 13 | 276 | 3.2 | 9.7 | 0.05 | 3.68 | 1.47 | 63 | 1000.4 |
| 20260506160508 | 13 | 340 | 3.2 | 11.3 | 0.05 | 3.68 | 1.47 | 65 | 1000.4 |
| 20260506160020 | 13 | 127 | 3.2 | 11.3 | 0.05 | 3.68 | 1.47 | 64 | 1000.5 |
| 20260506160008 | 13 | 148 | 4.8 | 11.3 | 0.05 | 3.68 | 1.47 | 62 | 1000.5 |
| 20260506155508 | 13 | 269 | 3.2 | 9.7 | 0.05 | 3.68 | 1.47 | 63 | 1000.5 |
| 20260506155030 | 13 | 34 | 3.2 | 11.3 | 0.05 | 3.68 | 1.47 | 67 | 1000.5 |
| 20260506154520 | 13 | 344 | 4.8 | 11.3 | 0.05 | 3.68 | 1.47 | 65 | 1000.5 |
| 20260506154508 | 13 | 344 | 4.8 | 11.3 | 0.05 | 3.68 | 1.47 | 65 | 1000.5 |
| 20260506154011 | 13 | 46 | 3.2 | 11.3 | 0.08 | 3.68 | 1.47 | 66 | 1000.4 |
| 20260506153533 | 13 | 32 | 4.8 | 11.3 | 0.05 | 3.66 | 1.45 | 68 | 1000.1 |
| 20260506153509 | 13 | 60 | 4.8 | 11.3 | 0.05 | 3.66 | 1.45 | 68 | 1000.1 |
| 20260506153020 | 13 | 46 | 4.8 | 11.3 | 0.05 | 3.66 | 1.45 | 68 | 1000.2 |
| 20260506153008 | 13 | 1 | 4.8 | 11.3 | 0.05 | 3.66 | 1.45 | 67 | 1000.2 |
| 20260506152508 | 13 | 18 | 3.2 | 11.3 | 0.05 | 3.66 | 1.45 | 69 | 1000.3 |
| 20260506152019 | 12 | 352 | 1.6 | 11.3 | 0.08 | 3.66 | 1.45 | 70 | 1000.4 |
| 20260506151531 | 12 | 39 | 4.8 | 11.3 | 0.08 | 3.66 | 1.45 | 68 | 1000.3 |
| 20260506151508 | 12 | 350 | 4.8 | 11.3 | 0.08 | 3.66 | 1.45 | 68 | 1000.3 |
| 20260506151008 | 12 | 46 | 3.2 | 9.7 | 0.08 | 3.66 | 1.45 | 70 | 1000.4 |
| 20260506150521 | 12 | 327 | 4.8 | 9.7 | 0.05 | 3.63 | 1.42 | 71 | 1000.0 |
| 20260506150508 | 12 | 334 | 4.8 | 9.7 | 0.05 | 3.63 | 1.42 | 71 | 1000.0 |
| 20260506150020 | 12 | 13 | 3.2 | 9.7 | 0.08 | 3.63 | 1.42 | 72 | 999.8 |
| 20260506150008 | 12 | 302 | 4.8 | 9.7 | 0.08 | 3.63 | 1.42 | 72 | 999.8 |
| 20260506145508 | 12 | 322 | 3.2 | 11.3 | 0.08 | 3.63 | 1.42 | 78 | 999.7 |